Regional Weather Roundup
Issued by NWS

Home | Current Version | Previous Version | Text Only | Print | Product List | Glossary Off
Versions: 1 2 3 4 5 6 7 8 9 10 11 12 13 14 15 16 17 18 19 20 21 22 23 24 25 26 27 28 29 30 31 32 33 34 35 36 37 38 39 40 41 42 43 44 45 46 47 48 49 50

923
ASUS43 KMKX 141459
RWRWI

WISCONSIN REGIONAL WEATHER ROUNDUP
NATIONAL WEATHER SERVICE MILWAUKEE/SULLIVAN WI
900 AM CST SUN FEB 14 2016

NOTE: "FAIR" INDICATES FEW OR NO CLOUDS BELOW 12,000 FEET WITH NO
SIGNIFICANT WEATHER AND/OR OBSTRUCTIONS TO VISIBILITY.

WIZ001-002-006>008-014>016-023>028-141600-
NORTHWEST WISCONSIN

CITY           SKY/WX    TMP DP  RH WIND       PRES   REMARKS
SUPERIOR ARPT  CLOUDY     6  -7  54 CALM      30.13F
ASHLAND        CLOUDY    -6 -11  79 CALM      30.14F
HAYWARD        CLOUDY     6 -10  47 S8        30.10F WCI  -7
SIREN          LGT SNOW   8   0  69 SE10      30.08F WCI  -6
CUMBERLAND     FLURRIES   5  -6  61 SE8       30.08F WCI  -8
RICE LAKE      FLURRIES   7  -4  60 SE10      30.12F WCI  -8
CHETEK         FLURRIES   7  -4  61 SE10G16   30.12F WCI  -8
LADYSMITH      CLOUDY     1 -10  58 SE10      30.14F WCI -14
EAU CLAIRE     NOT AVBL
MENOMONIE      CLOUDY     8  -3  59 E9        30.12F WCI  -5
NEW RICHMOND   CLOUDY    10  -1  62 SE9       30.08S WCI  -4
OSCEOLA        FLURRIES  10   0  65 SE8       30.11S WCI  -3
$$

WIZ003>005-009-010-017-018-141600-
NORTH CENTRAL WISCONSIN

CITY           SKY/WX    TMP DP  RH WIND       PRES   REMARKS
MANITOWISH WTR CLOUDY    -2 -12  62 S9        30.12F WCI -18
ARBOR VITAE    CLOUDY    -1 -10  66 S7        30.13F WCI -14
WOODRUFF       CLOUDY    -1 -10  66 S7        30.13F WCI -14
RHINELANDER    CLOUDY    -7 -13  75 E6        30.13F WCI -20
EAGLE RIVER    CLOUDY    -4 -11  71 CALM      30.14F
LAND O LAKES   CLOUDY    -2  -6  80 S3        30.15F
PHILLIPS       CLOUDY    -3 -12  65 SE6       30.11F WCI -15
TOMAHAWK       CLOUDY    -4  -9  77 CALM      30.16F
MEDFORD        CLOUDY    -1 -11  60 SE9       30.13S WCI -16
MERRILL        CLOUDY    -5 -12  71 SE5       30.18F WCI -15
$$

WIZ029-030-035-036-043>047-141600-
CENTRAL WISCONSIN

CITY           SKY/WX    TMP DP  RH WIND       PRES   REMARKS
WAUSAU         CLOUDY    -1  -9  68 E9        30.17F WCI -16
MOSINEE        SUNNY      1  -6  71 E8        30.18F WCI -12
MARSHFIELD     CLOUDY     4  -9  55 SE10      30.14F WCI -11
STEVENS POINT  CLOUDY     0 -10  60 E6        30.21F WCI -11
WAUPACA        CLOUDY    -6 -12  73 CALM      30.26F
WAUTOMA        NOT AVBL
WISC RAPIDS    SUNNY      6  -8  52 SE8       30.20F WCI  -7
CAMP DOUGLAS   NOT AVBL
$$

WIZ011>013-019>022-031-037>040-048>050-141600-
NORTHEAST WISCONSIN

CITY           SKY/WX    TMP DP  RH WIND       PRES   REMARKS
ANTIGO         CLOUDY    -2 -11  65 SE9       30.17F WCI -17
SHAWANO        CLOUDY    -7 -13  74 CALM      30.29F
OCONTO         CLOUDY    -6 -12  74 CALM      30.32F
STURGEON BAY   CLOUDY     7  -6  56 CALM      30.31F
GREEN BAY      CLOUDY     2  -5  72 NE5       30.28F WCI  -8
MANITOWOC      NOT AVBL
APPLETON       MOSUNNY    7  -6  56 CALM      30.23F
CLINTONVILLE   CLOUDY    -8 -13  77 CALM      30.26F
OSHKOSH        CLOUDY     5  -5  63 CALM      30.24F
$$

WIZ032>034-041-042-053>061-141600-
SOUTHWEST WISCONSIN

CITY           SKY/WX    TMP DP  RH WIND       PRES   REMARKS
LA CROSSE      LGT SNOW  13   3  64 SE13      30.15F WCI  -2
SPARTA         CLOUDY    11   0  62 SE3       30.18S
VIROQUA        CLOUDY    10   3  72 SE14      30.11S WCI  -5
BOSCOBEL       LGT SNOW  15   6  67 VRB6      30.18F WCI   6
PRAIRIE DU CHI MIX PCPN  15   8  73 SE6       30.16S WCI   6
PLATTEVILLE    CLOUDY    15   9  78 SE16G23   30.15S WCI  -1
$$

WIZ056-057-062-063-064-067-068-141600-
SOUTH CENTRAL WISCONSIN

CITY           SKY/WX    TMP DP  RH WIND       PRES   REMARKS
REEDSBURG      CLOUDY    10   0  63 SE5       30.19S WCI   2
BARABOO/DELLS  CLOUDY    10  -1  61 SE8       30.19F WCI  -3
LONE ROCK      NOT AVBL
MINERAL POINT  CLOUDY    16   7  67 SE14G20   30.15R WCI   1
MADISON        CLOUDY    13   1  59 SE15      30.20F WCI  -3
MIDDLETON      CLOUDY    15   3  59 SE12      30.20F WCI   2
WATERTOWN      CLOUDY    13   1  57 SE9       30.23F WCI   1
MONROE         CLOUDY    14   5  67 SE15G21   30.18F WCI  -1
JANESVILLE     CLOUDY    18   1  49 SE16      30.22F WCI   3
$$

WIZ051-052-058>065-066-070>072-141600-
SOUTHEAST WISCONSIN

CITY           SKY/WX    TMP DP  RH WIND       PRES   REMARKS
MILWAUKEE      FLURRIES  15   7  70 S8        30.28F WCI   4
WAUKESHA       SUNNY      9   1  72 SE17G23   30.27F WCI -10
MILWAUKEE/TIMM NOT AVBL
RACINE         CLOUDY    19   9  65 SE20      30.29F WCI   3
BURLINGTON     CLOUDY    13   1  59 SE13G20   30.26F WCI  -2
KENOSHA        CLOUDY    17   8  67 SE20      30.27F WCI   1
FOND DU LAC    FLURRIES  10  -1  61 S8        30.24F WCI  -2
SHEBOYGAN      LGT SNOW   9   3  77 CALM      30.28F
WEST BEND      CLOUDY     9   1  72 CALM      30.26F
JUNEAU         CLOUDY     9  -3  58 SE9       30.24F WCI  -5
$$

LSZ147-162-141600-
LAKE SUPERIOR

STATION/POSITION TIME  TEMP    WIND        PRES    WAVE
                       AIR SEA DIR/SP/G            HT/PER
                 (UTC) (F)     (DEG/KT/KT) (MB)    (FT/S)
DEVILS ISLAND    1400    6     170/ 10/ 13 1023.7F
SAXON HARBOR     1400                      1021.7
$$

LMZ867-665-643>646-141600-
LAKE MICHIGAN

STATION/POSITION TIME  TEMP    WIND        PRES    WAVE
                       AIR SEA DIR/SP/G            HT/PER
                 (UTC) (F)     (DEG/KT/KT) (MB)    (FT/S)
CHAMBERS ISLAND  1400    7     190/  2/  3 1027.1F
SISTER BAY       1319    1        CALM       N/A
ALGOMA LAKESHORE 1326             CALM       N/A
KEWAUNEE LAKESHO 1400   -3     290/  5/  7 1026.1F
SHEBOYGAN LAKESH 1400   10     280/  2/  3 1028.6F
PORT WASHINGTON  1400   14     210/  3/  7 1027.4F
MILWAUKEE LAKESH 1410   15     190/ 10/ 12   N/A
KENOSHA   LAKESH 1400   18     170/ 21/ 27 1026.1F
$$

TC  - TEMPERATURE IN CELSIUS
VSB - VISIBILITY IN STATUTE MILES
WCI - WIND CHILL INDEX
HX  - HEAT INDEX





USA.gov is the U.S. government's official web portal to all federal, state and local government web resources and services.